Tracking 19149 objects as of 22-Apr-2018
HD Live streaming from Space Station
objects crossing your sky now

FENGYUN 1C DEB

Track FENGYUN 1C DEB now!
10-day predictions


NORAD ID: 37410
Int'l Code: 1999-025EGC
Perigee: 840.8 km
Apogee: 1,040.9 km
Inclination: 98.1 °
Period: 103.7 minutes
Semi major axis: 7311 km
RCS: 0.0093 m2 (small)
Launch date: May 10, 1999
Source: People's Republic of China (PRC)
Launch site: Taiyaun Space Center, China (TSC)

Note: This is SATELLITE DEBRIS
aabbcc
Your satellite tracking list
Your tracking list is empty




NASA's NSSDC Master Catalog

Two Line Element Set (TLE):
1 37410U 99025EGC 18105.80253122  .00000599  00000-0  49095-3 0  9991
2 37410  98.1065 316.7923 0136812 324.8097  34.4086 13.88553745522521
Source of the keplerian elements: AFSPC